| time (UTC) | temp F | wind direction | speed knots | gust knots | rain 1hr in | rain 24hr in | rain mn in | humidity % | barometer mb |
| 20260503021549 | 55 | 0 | 0.0 | 0.0 | 0.00 | 0.55 | 0.00 | 95 | 1013.5 |
| 20260503020055 | 55 | 0 | 0.0 | 0.0 | 0.00 | 0.55 | 0.00 | 95 | 1013.5 |
| 20260503014603 | 55 | 0 | 0.0 | 0.9 | 0.00 | 0.55 | 0.00 | 95 | 1013.7 |
| 20260503013053 | 56 | 0 | 0.0 | 0.9 | 0.00 | 0.54 | 0.00 | 95 | 1013.7 |
| 20260503011552 | 56 | 0 | 0.0 | 0.9 | 0.00 | 0.54 | 0.00 | 95 | 1013.8 |
| 20260503010052 | 56 | 0 | 0.0 | 0.0 | 0.00 | 0.54 | 0.00 | 95 | 1013.9 |
| 20260503004548 | 56 | 0 | 0.0 | 0.9 | 0.00 | 0.54 | 0.00 | 95 | 1014.0 |
| 20260503003106 | 57 | 122 | 0.0 | 0.9 | 0.00 | 0.54 | 0.00 | 95 | 1014.1 |
| 20260503001607 | 57 | 0 | 0.0 | 0.0 | 0.00 | 0.54 | 0.00 | 95 | 1014.1 |
| 20260503000053 | 57 | 0 | 0.0 | 0.0 | 0.00 | 0.54 | 0.00 | 95 | 1014.2 |
| 20260502234553 | 57 | 0 | 0.0 | 0.0 | 0.00 | 0.54 | 0.00 | 95 | 1014.3 |
| 20260502233047 | 57 | 117 | 0.0 | 0.9 | 0.00 | 0.54 | 0.00 | 95 | 1014.3 |
| 20260502231555 | 58 | 0 | 0.0 | 0.0 | 0.00 | 0.54 | 0.00 | 95 | 1014.4 |
| 20260502230057 | 58 | 0 | 0.0 | 0.0 | 0.00 | 0.54 | 0.00 | 95 | 1014.5 |
| 20260502224557 | 57 | 0 | 0.0 | 0.9 | 0.00 | 0.54 | 0.00 | 95 | 1014.3 |
| 20260502223054 | 57 | 0 | 0.0 | 0.0 | 0.00 | 0.54 | 0.00 | 95 | 1014.4 |
| 20260502221552 | 58 | 0 | 0.0 | 0.0 | 0.00 | 0.54 | 0.00 | 95 | 1014.4 |
| 20260502220054 | 58 | 0 | 0.0 | 0.9 | 0.00 | 0.54 | 0.00 | 95 | 1014.3 |
| 20260502214600 | 58 | 0 | 0.0 | 0.9 | 0.00 | 0.54 | 0.54 | 95 | 1014.4 |
| 20260502213050 | 58 | 0 | 0.0 | 0.0 | 0.00 | 0.54 | 0.54 | 95 | 1014.3 |
| 20260502211549 | 58 | 0 | 0.0 | 0.0 | 0.00 | 0.54 | 0.54 | 95 | 1014.2 |
| 20260502210104 | 58 | 176 | 0.0 | 0.9 | 0.00 | 0.54 | 0.54 | 95 | 1014.4 |
| 20260502204548 | 58 | 0 | 0.0 | 0.0 | 0.00 | 0.54 | 0.54 | 95 | 1014.4 |
| 20260502203054 | 58 | 0 | 0.0 | 0.0 | 0.00 | 0.54 | 0.54 | 95 | 1014.2 |
| 20260502201607 | 58 | 0 | 0.0 | 0.0 | 0.00 | 0.54 | 0.54 | 94 | 1014.1 |
| 20260502200050 | 59 | 0 | 0.0 | 0.0 | 0.00 | 0.54 | 0.54 | 94 | 1013.8 |
| 20260502194551 | 59 | 0 | 0.0 | 0.0 | 0.00 | 0.54 | 0.54 | 94 | 1013.8 |
| 20260502193052 | 59 | 0 | 0.0 | 0.0 | 0.00 | 0.54 | 0.54 | 94 | 1013.5 |
| 20260502191550 | 60 | 0 | 0.0 | 0.0 | 0.00 | 0.54 | 0.54 | 94 | 1013.6 |
| 20260502190055 | 61 | 0 | 0.0 | 0.0 | 0.00 | 0.54 | 0.54 | 94 | 1013.7 |
| 20260502184604 | 61 | 0 | 0.0 | 0.0 | 0.00 | 0.54 | 0.54 | 94 | 1013.8 |
| 20260502183102 | 62 | 0 | 0.0 | 0.0 | 0.01 | 0.54 | 0.54 | 94 | 1013.8 |
| 20260502181605 | 61 | 0 | 0.0 | 0.0 | 0.02 | 0.54 | 0.54 | 94 | 1014.0 |
| 20260502163058 | 63 | 0 | 0.0 | 0.9 | 0.00 | 0.51 | 0.51 | 94 | 1014.0 |
| 20260502161553 | 62 | 0 | 0.0 | 0.9 | 0.01 | 0.51 | 0.51 | 94 | 1014.1 |
| 20260502151604 | 60 | 0 | 0.0 | 2.6 | 0.00 | 0.50 | 0.50 | 93 | 1014.1 |
| 20260502150105 | 60 | 65 | 0.9 | 3.5 | 0.00 | 0.49 | 0.49 | 93 | 1014.4 |
| 20260502123104 | 68 | 0 | 0.0 | 0.9 | 0.00 | 0.03 | 0.03 | 80 | 1015.4 |
| 20260502121556 | 68 | 0 | 0.0 | 0.9 | 0.00 | 0.03 | 0.03 | 82 | 1015.2 |
| 20260502114559 | 66 | 281 | 0.0 | 0.0 | 0.03 | 0.03 | 0.03 | 86 | 1015.7 |
| 20260502113055 | 65 | 0 | 0.0 | 0.9 | 0.03 | 0.03 | 0.03 | 86 | 1015.8 |
| 20260502111556 | 64 | 0 | 0.0 | 0.0 | 0.03 | 0.03 | 0.03 | 84 | 1016.5 |
| 20260502110058 | 64 | 0 | 0.0 | 0.9 | 0.00 | 0.00 | 0.00 | 82 | 1017.2 |
| 20260502104557 | 66 | 268 | 0.0 | 0.9 | 0.00 | 0.00 | 0.00 | 81 | 1017.2 |
| 20260502103101 | 66 | 0 | 0.0 | 0.9 | 0.00 | 0.00 | 0.00 | 78 | 1017.2 |
| 20260502101618 | 66 | 0 | 0.0 | 1.7 | 0.00 | 0.00 | 0.00 | 77 | 1017.3 |
| 20260502100118 | 66 | 193 | 0.0 | 3.5 | 0.00 | 0.00 | 0.00 | 76 | 1017.1 |
| 20260502080104 | 67 | 176 | 0.0 | 1.7 | 0.00 | 0.00 | 0.00 | 72 | 1017.2 |
| 20260502070055 | 65 | 0 | 0.0 | 1.7 | 0.00 | 0.00 | 0.00 | 73 | 1015.8 |
| 20260502064553 | 65 | 0 | 0.0 | 4.3 | 0.00 | 0.00 | 0.00 | 73 | 1016.0 |
| 20260502063052 | 65 | 33 | 0.9 | 4.3 | 0.00 | 0.00 | 0.00 | 73 | 1015.8 |
| 20260502061550 | 65 | 50 | 0.0 | 2.6 | 0.00 | 0.00 | 0.00 | 74 | 1015.7 |
| 20260502060056 | 64 | 120 | 0.0 | 0.9 | 0.00 | 0.00 | 0.00 | 74 | 1015.6 |
| 20260502054550 | 64 | 0 | 0.0 | 0.0 | 0.00 | 0.00 | 0.00 | 74 | 1015.7 |
| 20260502053108 | 65 | 0 | 0.0 | 0.9 | 0.00 | 0.00 | 0.00 | 73 | 1015.6 |
| 20260502051554 | 65 | 0 | 0.0 | 0.9 | 0.00 | 0.00 | 0.00 | 73 | 1015.7 |
| 20260502050056 | 65 | 0 | 0.0 | 0.9 | 0.00 | 0.00 | 0.00 | 73 | 1015.9 |
| 20260502044553 | 65 | 0 | 0.0 | 0.9 | 0.00 | 0.00 | 0.00 | 73 | 1015.8 |
| 20260502043058 | 65 | 0 | 0.0 | 0.9 | 0.00 | 0.00 | 0.00 | 73 | 1015.6 |
| 20260502041555 | 65 | 0 | 0.0 | 0.9 | 0.00 | 0.00 | 0.00 | 73 | 1015.9 |
| 20260502040054 | 65 | 0 | 0.0 | 0.9 | 0.00 | 0.00 | 0.00 | 73 | 1015.9 |
| 20260502034552 | 65 | 0 | 0.0 | 0.9 | 0.00 | 0.00 | 0.00 | 73 | 1016.0 |
| 20260502033102 | 65 | 0 | 0.0 | 0.9 | 0.00 | 0.00 | 0.00 | 74 | 1016.0 |
| 20260502031554 | 64 | 0 | 0.0 | 0.9 | 0.00 | 0.00 | 0.00 | 75 | 1016.1 |
| 20260502030059 | 63 | 0 | 0.0 | 0.9 | 0.00 | 0.00 | 0.00 | 79 | 1016.0 |
| 20260502024554 | 63 | 0 | 0.0 | 0.0 | 0.00 | 0.00 | 0.00 | 83 | 1016.0 |
| 20260502023108 | 63 | 0 | 0.0 | 1.7 | 0.00 | 0.00 | 0.00 | 84 | 1016.0 |